[[{"header":{"parameterUnit":"m.s-1","parameterCategory":1,"la1":30.2991,"la2":30.254,"lo1":-89.0895,"lo2":-89.0444,"dx":0.0017,"dy":0.0017,"nx":28,"ny":28,"refTime":"2023-01-17T09:00:00:Z","depth":0,"parameterNumber":2,"parameterNumberName":"U-component_of_WINDS"},"data":[0,0,0,0,0,0,0,0,0,0,0,0,0,0,0,0,0,0,0,0,0,0,0,0,0,0,0,0,0,0,0,0,0,0,0,0,0,0,0,0,0,0,0,0,0,0,0,0,0,0,0,0,0,0,0,0,0,0,0.0185,0.0185,0,0.0182,0.0182,0.0182,0.0161,0.0161,0.016,0.016,0.0159,0.0159,0.016,0,0,0,0,0,0,0,0,0,0,0,0,0,0.0172,0.0172,0.0185,0.0185,0.0185,0.0182,0.0182,0.0182,0.0161,0.0161,0.016,0.0159,0.0159,0.0159,0.016,0,0,0,0,0,0,0,0,0,0,0,0,0,0.0174,0.0172,0.0185,0.0174,0.0173,0.0182,0.0182,0.0182,0.0161,0.0161,0.016,0.0159,0.0159,0.0159,0.016,0.018,0,0,0.0162,0.0162,0,0,0,0,0,0,0,0,0.0174,0.0175,0.0175,0.0175,0.0174,0.0171,0.0177,0.0182,0.0162,0.0166,0.016,0.0159,0.0164,0.0164,0.0165,0.018,0.018,0.0162,0.0163,0.0163,0.0163,0,0,0,0,0,0,0,0.0174,0.0175,0.0184,0.0176,0.0174,0.0169,0.0169,0.0178,0.0169,0.0165,0.0164,0.0164,0.0163,0.0165,0.0165,0.018,0.0162,0.0163,0.0163,0.0163,0.021,0.0211,0,0,0,0,0,0,0.0175,0.0175,0.0184,0.0184,0.0172,0.017,0.017,0.0173,0.0169,0.0168,0.0164,0.0163,0.0164,0.0164,0.0165,0.0188,0.0163,0.0163,0.0164,0.021,0.0211,0.0211,0,0,0,0,0,0,0.0175,0.0176,0.0184,0.0179,0.0179,0.0171,0.0175,0.0173,0.0175,0.0168,0.0167,0.0168,0.0163,0.0164,0.0176,0.0188,0.0164,0.0164,0.0209,0.021,0.0211,0.0235,0,0,0,0,0,0,0.0175,0.0176,0.0184,0.0179,0.018,0.0195,0.0176,0.0174,0.0176,0.0174,0.0171,0.017,0.0163,0.0175,0.0177,0.0188,0.0165,0.0207,0.0209,0.0211,0.0233,0.0236,0.024,0,0,0,0,0,0.0174,0.0191,0.0184,0.0186,0.0189,0.0196,0.0196,0.0187,0.0177,0.0184,0.018,0.017,0.0186,0.0177,0.0178,0.019,0.0207,0.0209,0.021,0.0231,0.0236,0.024,0,0,0,0,0,0,0.0198,0.019,0.0183,0.0198,0.0198,0.0192,0.0202,0.0192,0.0195,0.0193,0.0182,0.0182,0.0196,0.0194,0.0184,0.0209,0.0195,0.0197,0.021,0.0214,0.0217,0.0218,0.0166,0,0,0,0,0,0.0205,0.0211,0.0204,0.0218,0.0218,0.021,0.0213,0.0206,0.0205,0.0205,0.0201,0.0201,0.0206,0.021,0.0214,0.0232,0.0231,0.0241,0.0244,0.0247,0.025,0.0259,0.0263,0.0217,0.0217,0.0217,0,0,0.022,0.0216,0.0221,0.0223,0.0222,0.0228,0.021,0.0218,0.0223,0.0206,0.0217,0.0215,0.0214,0.0229,0.0235,0.0228,0.0262,0.025,0.0252,0.0253,0.0261,0.0265,0.0269,0.0219,0.0219,0.0218,0,0,0.025,0.0247,0.0259,0.0258,0.0256,0.025,0.0253,0.0248,0.0246,0.0257,0.0244,0.025,0.0259,0.0258,0.026,0.0288,0.0279,0.029,0.0308,0.0317,0.0321,0.0324,0.0334,0.0338,0.0292,0.0292,0.0292,0,0.0268,0.0277,0.0266,0.0275,0.0276,0.026,0.0272,0.0271,0.0271,0.0273,0.0264,0.0274,0.0273,0.0287,0.0294,0.0296,0.0298,0.0291,0.0321,0.0324,0.0327,0.0336,0.034,0.0294,0.0293,0.0293,0.0293,0,0.03,0.0307,0.0316,0.0316,0.0318,0.0328,0.0319,0.0322,0.0315,0.031,0.0321,0.0318,0.0321,0.0324,0.0317,0.0337,0.0333,0.0323,0.0308,0.0333,0.0342,0.0345,0.0295,0.0295,0.0295,0.0294,0,0,0.0346,0.0338,0.0342,0.0341,0.0338,0.0343,0.0352,0.0354,0.0357,0.0358,0.0365,0.0372,0.0363,0.0364,0.0357,0.0364,0.0387,0.0353,0.0353,0.036,0.0409,0.0417,0.0422,0.038,0.0381,0.0382,0.0409,0,0.0375,0.039,0.038,0.0397,0.0402,0.0387,0.0395,0.0393,0.0389,0.0393,0.0388,0.0393,0.038,0.0381,0.0388,0.0383,0.0397,0.0381,0.0388,0.0388,0.0389,0.0426,0.0435,0.0461,0.0413,0.0413,0.0414,0,0.0411,0.0412,0.0429,0.0423,0.0425,0.0433,0.0434,0.0438,0.0436,0.0432,0.0433,0.0423,0.0432,0.0417,0.0428,0.0418,0.042,0.0418,0.0419,0.0419,0.0403,0.0428,0.0469,0.0473,0.0419,0.0419,0.0418,0,0.0443,0.0449,0.0459,0.0459,0.0453,0.0458,0.0456,0.0453,0.0455,0.0456,0.0457,0.0459,0.046,0.0462,0.0454,0.0443,0.0466,0.0451,0.0464,0.0464,0.047,0.047,0.0512,0.0471,0.047,0.047,0.047,0,0.0477,0.0488,0.0473,0.048,0.0492,0.048,0.0492,0.0488,0.0486,0.0491,0.0478,0.0484,0.0472,0.0476,0.0469,0.048,0.0481,0.0478,0.0476,0.0479,0.048,0.0481,0.0479,0.0471,0.0471,0.0471,0.0471,0,0.0515,0.0506,0.0516,0.0509,0.0507,0.0516,0.051,0.0516,0.051,0.0517,0.0519,0.0509,0.0514,0.0505,0.0509,0.0504,0.0519,0.0514,0.052,0.0518,0.0532,0.0531,0.0577,0.0582,0.0537,0.0538,0.0538,0,0.0537,0.0545,0.0538,0.0541,0.0539,0.0544,0.0545,0.0533,0.0536,0.0533,0.0539,0.0543,0.0545,0.0553,0.0546,0.0549,0.0544,0.056,0.0545,0.0547,0.0545,0.0544,0.0545,0.0564,0.0564,0.0565,0.0565,0,0.0578,0.0572,0.0575,0.0576,0.0578,0.0578,0.0577,0.058,0.0568,0.0571,0.0575,0.0576,0.0579,0.0583,0.0584,0.0581,0.0571,0.057,0.0573,0.0577,0.0579,0.0578,0.0529,0.0569,0.0569,0.0568,0.0568,0.0568,0.0609,0.0615,0.0611,0.0614,0.0612,0.0611,0.0616,0.061,0.0613,0.0615,0.0608,0.0613,0.061,0.061,0.0609,0.0613,0.0606,0.0611,0.0612,0.0613,0.0616,0.0578,0.0613,0.0613,0.0613,0.0613,0.0613,0,0.0649,0.0645,0.0648,0.0647,0.0649,0.0638,0.0637,0.064,0.0644,0.0642,0.0644,0.0649,0.0652,0.0645,0.0647,0.0652,0.0647,0.0653,0.0653,0.0652,0.0622,0.0619,0.0657,0.0657,0.0657,0.0657,0.0657,0.0656,0.067,0.0679,0.0673,0.0682,0.0678,0.0683,0.0683,0.0683,0.0681,0.0686,0.0688,0.0684,0.068,0.0681,0.0684,0.0682,0.0683,0.069,0.0687,0.0659,0.0654,0.065,0.0648,0.0691,0.0691,0.0717,0.0717,0.0717]},{"header":{"parameterUnit":"m.s-1","parameterCategory":1,"la1":30.2991,"la2":30.254,"lo1":-89.0895,"lo2":-89.0444,"dx":0.0017,"dy":0.0017,"nx":28,"ny":28,"refTime":"2023-01-17T09:00:00:Z","depth":0,"parameterNumber":3,"parameterNumberName":"V-component_of_WINDS"},"data":[0,0,0,0,0,0,0,0,0,0,0,0,0,0,0,0,0,0,0,0,0,0,0,0,0,0,0,0,0,0,0,0,0,0,0,0,0,0,0,0,0,0,0,0,0,0,0,0,0,0,0,0,0,0,0,0,0,0,5.838,5.8382,0,5.8505,5.8506,5.8507,5.8491,5.8489,5.8487,5.8485,5.8605,5.861,5.8615,0,0,0,0,0,0,0,0,0,0,0,0,0,5.8124,5.8129,5.838,5.8382,5.8383,5.8504,5.8506,5.8508,5.8492,5.8489,5.8487,5.8484,5.8603,5.8609,5.8615,0,0,0,0,0,0,0,0,0,0,0,0,0,5.824,5.8131,5.838,5.839,5.8392,5.8504,5.8506,5.8508,5.8492,5.8489,5.8486,5.8483,5.8601,5.8609,5.8616,5.8724,0,0,5.8639,5.8643,0,0,0,0,0,0,0,0,5.8234,5.825,5.8387,5.839,5.8392,5.8479,5.846,5.858,5.8493,5.8454,5.8485,5.8482,5.8565,5.8576,5.8605,5.8729,5.8734,5.864,5.8645,5.8648,5.865,0,0,0,0,0,0,0,5.8226,5.8244,5.8429,5.8389,5.8392,5.8387,5.84,5.8482,5.8525,5.8457,5.8456,5.8472,5.8566,5.8598,5.8608,5.8736,5.864,5.8647,5.8651,5.8654,5.8958,5.8961,0,0,0,0,0,0,5.8216,5.8238,5.8425,5.8433,5.8304,5.8394,5.8409,5.8454,5.8524,5.8532,5.8474,5.847,5.8586,5.8599,5.8612,5.8746,5.8648,5.8655,5.8659,5.8955,5.8959,5.8963,0,0,0,0,0,0,5.8211,5.8233,5.842,5.8335,5.8359,5.8402,5.8453,5.8458,5.8491,5.8537,5.8544,5.8499,5.8585,5.8601,5.8697,5.875,5.8658,5.8665,5.895,5.8956,5.8961,5.9012,0,0,0,0,0,0,5.8203,5.8231,5.8273,5.8336,5.8363,5.8505,5.8456,5.8463,5.8505,5.8501,5.8562,5.857,5.8584,5.8686,5.8705,5.8758,5.8671,5.8946,5.8953,5.8959,5.9006,5.9018,5.9029,0,0,0,0,0,5.8194,5.828,5.8275,5.8298,5.8417,5.8508,5.8523,5.854,5.8509,5.8551,5.8582,5.8568,5.874,5.8696,5.8717,5.8774,5.8943,5.8951,5.8959,5.9001,5.9016,5.9029,0,0,0,0,0,0,5.8218,5.8288,5.8284,5.8393,5.8445,5.8505,5.8559,5.8555,5.8615,5.8608,5.8624,5.8638,5.8736,5.8764,5.8713,5.8883,5.8837,5.885,5.8862,5.8877,5.8888,5.888,5.8678,0,0,0,0,0,5.8237,5.8307,5.8363,5.8454,5.8481,5.8516,5.8555,5.8565,5.8618,5.8639,5.8676,5.8727,5.8793,5.8836,5.8898,5.9009,5.9023,5.9058,5.907,5.9079,5.909,5.9154,5.9171,5.8989,5.8989,5.8988,0,0,5.8274,5.8321,5.8364,5.846,5.8501,5.8573,5.8534,5.861,5.8663,5.8649,5.8745,5.8774,5.8831,5.8936,5.8984,5.8962,5.9144,5.9089,5.9096,5.9103,5.9164,5.9182,5.9197,5.8994,5.8993,5.8992,0,0,5.8381,5.8423,5.8505,5.8549,5.8614,5.8637,5.8657,5.8719,5.8739,5.8835,5.8827,5.8889,5.9001,5.9045,5.9081,5.9208,5.9198,5.9227,5.9288,5.935,5.9365,5.9378,5.9426,5.9443,5.9237,5.9238,5.9238,0,5.8419,5.8529,5.8547,5.8627,5.867,5.8664,5.8748,5.8788,5.8869,5.8899,5.8873,5.9018,5.9056,5.9173,5.9204,5.9232,5.9256,5.9221,5.9362,5.9375,5.9387,5.9433,5.9451,5.9241,5.9241,5.924,5.924,0,5.8575,5.8651,5.8709,5.8793,5.8842,5.8922,5.8952,5.9,5.9005,5.903,5.9129,5.9175,5.925,5.9277,5.928,5.9395,5.9381,5.9358,5.9313,5.9408,5.9452,5.9469,5.9246,5.9245,5.9244,5.9243,0,0,5.8699,5.8794,5.8816,5.8855,5.8928,5.8986,5.9066,5.9143,5.9185,5.924,5.9309,5.9407,5.9388,5.943,5.9438,5.9492,5.9594,5.9464,5.9465,5.9489,5.9727,5.9746,5.9766,5.9587,5.9591,5.9593,5.9723,0,5.8815,5.8962,5.8982,5.9111,5.9184,5.9181,5.9251,5.9303,5.933,5.9393,5.9421,5.9492,5.946,5.9485,5.9539,5.957,5.9642,5.9561,5.9652,5.9655,5.9641,5.9788,5.9807,5.9928,5.974,5.9743,5.9745,0,5.897,5.9036,5.9174,5.9241,5.9271,5.9335,5.9408,5.9469,5.9528,5.9543,5.9592,5.9594,5.9678,5.9628,5.9744,5.9688,5.9726,5.9747,5.9752,5.9763,5.9708,5.9806,5.9966,5.9985,5.9772,5.9769,5.9767,0,5.9052,5.9174,5.9273,5.9306,5.9385,5.9431,5.9466,5.9522,5.9567,5.963,5.966,5.973,5.9769,5.9823,5.9845,5.9806,5.9961,5.9911,5.9976,5.9976,6.0011,6.0009,6.0182,6.0031,6.003,6.003,6.003,0,5.9181,5.9266,5.9312,5.9373,5.9469,5.9491,5.9584,5.9617,5.9668,5.9735,5.9734,5.9796,5.982,5.9886,5.9902,5.9998,6.0014,6.0029,6.0033,6.0032,6.003,6.0058,6.0052,6.0035,6.0034,6.0033,6.0032,0,5.9289,5.9323,5.9432,5.95,5.9519,5.9586,5.9644,5.9703,5.973,5.9815,5.9836,5.9877,5.9956,5.9982,6.0075,6.0087,6.0199,6.0193,6.018,6.0182,6.0247,6.0242,6.0447,6.0476,6.0302,6.0304,6.0305,0,5.9371,5.9437,5.9514,5.9561,5.9599,5.9673,5.9721,5.9745,5.9795,5.9869,5.992,5.9998,6.0063,6.0188,6.0225,6.0297,6.0296,6.0363,6.0306,6.0304,6.0301,6.0298,6.0306,6.0374,6.0376,6.0377,6.0378,0,5.9514,5.9528,5.9599,5.9678,5.9736,5.9797,5.9857,5.9894,5.9927,5.9983,6.0066,6.0116,6.0214,6.0293,6.0367,6.0401,6.0396,6.0396,6.0415,6.0415,6.0407,6.0416,6.0213,6.0391,6.039,6.0389,6.0388,6.0388,5.9613,5.9674,5.9739,5.9819,5.9867,5.9924,5.9985,6.0021,6.0091,6.0176,6.0184,6.0274,6.0333,6.0433,6.0471,6.054,6.0521,6.0548,6.0556,6.0563,6.057,6.0394,6.0553,6.0552,6.0552,6.0552,6.0552,0,5.9759,5.9802,5.9875,5.9962,6.0025,6.0017,6.0083,6.0137,6.0217,6.0273,6.0339,6.0434,6.0511,6.0556,6.0633,6.068,6.068,6.07,6.0698,6.0707,6.0581,6.0558,6.0699,6.0699,6.0699,6.0699,6.0699,6.0699,5.9843,5.9947,5.9969,6.0097,6.0138,6.0229,6.0268,6.0321,6.0367,6.0476,6.0541,6.0571,6.0624,6.0705,6.0776,6.0787,6.0816,6.0839,6.0848,6.073,6.0715,6.07,6.0679,6.0844,6.0844,6.0969,6.097,6.0971]}]]